BJK9260 PHNL-PHOG

Flight info

Callsign BJK9260
Flight time 0h 22m
Altitude 13000
Route PALAY3 LNY CAMPS4
Aircraft A332/H-VGDW/C

Departure

Time 2026-04-20 15:23
Airport Daniel K. Inouye International Airport (PHNL)

Arrival

Time 2026-04-20 15:46
Airport Kahului International Airport (PHOG)
Time Latitude Longitude Altitude Speed Heading
2026-04-20 15:14 21.32079 -157.91367 28 ft 0 kts 64°
2026-04-20 15:20 21.32083 -157.91363 28 ft 3 kts 45°
2026-04-20 15:20 21.32106 -157.91386 28 ft 11 kts 289°
2026-04-20 15:20 21.32101 -157.91483 28 ft 14 kts 248°
2026-04-20 15:20 21.32044 -157.91577 28 ft 16 kts 234°
2026-04-20 15:21 21.31964 -157.91663 28 ft 16 kts 211°
2026-04-20 15:21 21.31872 -157.91743 28 ft 20 kts 232°
2026-04-20 15:21 21.31777 -157.91876 28 ft 24 kts 232°
2026-04-20 15:21 21.31673 -157.92022 28 ft 26 kts 232°
2026-04-20 15:22 21.31565 -157.92180 28 ft 27 kts 235°
2026-04-20 15:22 21.31446 -157.92344 28 ft 29 kts 231°
2026-04-20 15:22 21.31324 -157.92517 28 ft 30 kts 233°
2026-04-20 15:22 21.31362 -157.92671 28 ft 23 kts 332°
2026-04-20 15:23 21.31493 -157.92575 28 ft 44 kts 52°
2026-04-20 15:23 21.31833 -157.92093 28 ft 117 kts 52°
2026-04-20 15:23 21.32455 -157.91213 98 ft 174 kts 53°
2026-04-20 15:23 21.33189 -157.90137 988 ft 178 kts 61°
2026-04-20 15:24 21.33377 -157.88855 2027 ft 180 kts 100°
2026-04-20 15:24 21.32763 -157.87607 2494 ft 210 kts 135°
2026-04-20 15:24 21.31400 -157.86748 2877 ft 244 kts 159°
2026-04-20 15:24 21.29732 -157.86183 3606 ft 257 kts 162°
2026-04-20 15:25 21.28095 -157.85387 4536 ft 261 kts 147°
2026-04-20 15:25 21.26754 -157.84064 5463 ft 265 kts 129°
2026-04-20 15:25 21.25666 -157.82457 6373 ft 269 kts 124°
2026-04-20 15:25 21.24636 -157.80763 7269 ft 273 kts 122°
2026-04-20 15:26 21.23607 -157.79026 8194 ft 278 kts 123°
2026-04-20 15:26 21.22562 -157.77259 9163 ft 283 kts 123°
2026-04-20 15:26 21.21497 -157.75457 10059 ft 290 kts 123°
2026-04-20 15:26 21.20386 -157.73580 10599 ft 310 kts 123°
2026-04-20 15:27 21.19185 -157.71554 10970 ft 332 kts 123°
2026-04-20 15:27 21.17922 -157.69422 11615 ft 344 kts 124°
2026-04-20 15:27 21.16629 -157.67239 12350 ft 350 kts 124°
2026-04-20 15:27 21.15318 -157.65026 12825 ft 355 kts 124°
2026-04-20 15:28 21.13988 -157.62782 12981 ft 356 kts 124°
2026-04-20 15:28 21.12661 -157.60544 12990 ft 356 kts 124°
2026-04-20 15:28 21.11338 -157.58313 12990 ft 356 kts 124°
2026-04-20 15:28 21.10028 -157.56060 12989 ft 356 kts 123°
2026-04-20 15:29 21.08744 -157.53794 12979 ft 356 kts 123°
2026-04-20 15:29 21.07465 -157.51526 12983 ft 356 kts 123°
2026-04-20 15:29 21.06186 -157.49257 12985 ft 356 kts 123°
2026-04-20 15:29 21.04903 -157.46985 12985 ft 356 kts 123°
2026-04-20 15:30 21.03619 -157.44714 12987 ft 356 kts 123°
2026-04-20 15:30 21.02337 -157.42446 12988 ft 356 kts 123°
2026-04-20 15:30 21.01068 -157.40205 12984 ft 356 kts 123°
2026-04-20 15:30 20.99783 -157.37932 12984 ft 356 kts 123°
2026-04-20 15:31 20.98503 -157.35670 12987 ft 356 kts 123°
2026-04-20 15:31 20.97216 -157.33400 12920 ft 357 kts 123°
2026-04-20 15:31 20.95925 -157.31122 12671 ft 358 kts 123°
2026-04-20 15:31 20.94635 -157.28849 12426 ft 357 kts 123°
2026-04-20 15:32 20.93348 -157.26581 12204 ft 355 kts 123°
2026-04-20 15:32 20.92071 -157.24329 11956 ft 353 kts 122°
2026-04-20 15:32 20.90796 -157.22086 11711 ft 352 kts 122°
2026-04-20 15:32 20.89529 -157.19855 11491 ft 350 kts 122°
2026-04-20 15:33 20.88676 -157.18354 11323 ft 349 kts 122°
2026-04-20 15:33 20.87418 -157.16140 11096 ft 348 kts 122°
2026-04-20 15:33 20.86167 -157.13940 10879 ft 346 kts 122°
2026-04-20 15:33 20.84937 -157.11778 10643 ft 344 kts 122°
2026-04-20 15:34 20.83697 -157.09601 10406 ft 342 kts 122°
2026-04-20 15:34 20.82463 -157.07433 10190 ft 340 kts 122°
2026-04-20 15:34 20.81262 -157.05322 10059 ft 324 kts 122°
2026-04-20 15:34 20.80117 -157.03311 9954 ft 309 kts 122°
2026-04-20 15:35 20.79028 -157.01400 9839 ft 296 kts 122°
2026-04-20 15:35 20.77965 -156.99537 9678 ft 293 kts 122°
2026-04-20 15:35 20.76919 -156.97679 9425 ft 292 kts 119°
2026-04-20 15:35 20.76130 -156.95682 9180 ft 291 kts 109°
2026-04-20 15:36 20.75541 -156.93616 8932 ft 290 kts 107°
2026-04-20 15:36 20.74998 -156.91574 8741 ft 282 kts 106°
2026-04-20 15:36 20.74466 -156.89573 8438 ft 280 kts 106°
2026-04-20 15:36 20.73932 -156.87573 8076 ft 280 kts 106°
2026-04-20 15:37 20.73394 -156.85574 7698 ft 279 kts 106°
2026-04-20 15:37 20.72860 -156.83592 7348 ft 277 kts 106°
2026-04-20 15:37 20.72328 -156.81624 6990 ft 274 kts 106°
2026-04-20 15:37 20.71800 -156.79674 6626 ft 272 kts 106°
2026-04-20 15:38 20.71278 -156.77741 6264 ft 270 kts 106°
2026-04-20 15:38 20.70758 -156.75819 5899 ft 269 kts 106°
2026-04-20 15:38 20.70241 -156.73910 5549 ft 267 kts 106°
2026-04-20 15:38 20.69724 -156.72013 5187 ft 265 kts 105°
2026-04-20 15:39 20.69214 -156.70135 4825 ft 262 kts 105°
2026-04-20 15:39 20.68707 -156.68266 4464 ft 261 kts 105°
2026-04-20 15:39 20.68204 -156.66410 4110 ft 259 kts 105°
2026-04-20 15:39 20.67702 -156.64568 3759 ft 258 kts 105°
2026-04-20 15:40 20.67250 -156.62724 3405 ft 256 kts 98°
2026-04-20 15:40 20.67305 -156.60837 3089 ft 256 kts 75°
2026-04-20 15:40 20.68160 -156.59190 3006 ft 258 kts 47°
2026-04-20 15:40 20.69540 -156.58002 2998 ft 258 kts 34°
2026-04-20 15:41 20.71004 -156.57001 3001 ft 242 kts 35°
2026-04-20 15:41 20.72346 -156.56021 3005 ft 225 kts 38°
2026-04-20 15:41 20.73584 -156.55081 3008 ft 211 kts 38°
2026-04-20 15:41 20.74749 -156.54204 3013 ft 201 kts 38°
2026-04-20 15:42 20.75894 -156.53352 3018 ft 200 kts 39°
2026-04-20 15:42 20.77023 -156.52510 2912 ft 196 kts 35°
2026-04-20 15:42 20.78119 -156.51692 2663 ft 188 kts 34°
2026-04-20 15:42 20.79172 -156.50906 2390 ft 180 kts 34°
2026-04-20 15:43 20.80172 -156.50159 2134 ft 170 kts 34°
2026-04-20 15:43 20.81097 -156.49467 1929 ft 155 kts 34°
2026-04-20 15:43 20.81947 -156.48832 1716 ft 143 kts 34°
2026-04-20 15:43 20.82728 -156.48249 1546 ft 133 kts 34°
2026-04-20 15:44 20.83483 -156.47686 1375 ft 132 kts 34°
2026-04-20 15:44 20.84234 -156.47126 1204 ft 132 kts 33°
2026-04-20 15:44 20.84988 -156.46564 1030 ft 132 kts 33°
2026-04-20 15:44 20.85738 -156.46003 843 ft 131 kts 34°
2026-04-20 15:45 20.86482 -156.45447 684 ft 130 kts 34°
2026-04-20 15:45 20.87225 -156.44892 516 ft 130 kts 34°
2026-04-20 15:45 20.87963 -156.44340 356 ft 129 kts 34°
2026-04-20 15:45 20.88699 -156.43790 176 ft 129 kts 35°
2026-04-20 15:46 20.89419 -156.43252 39 ft 124 kts 33°
2026-04-20 15:46 20.89963 -156.42855 31 ft 55 kts 34°
2026-04-20 15:46 20.90057 -156.42827 31 ft 10 kts 285°
2026-04-20 15:46 20.90027 -156.42925 32 ft 16 kts 248°
2026-04-20 15:47 20.89963 -156.43002 32 ft 14 kts 218°
2026-04-20 15:47 20.89881 -156.43072 34 ft 16 kts 216°
2026-04-20 15:47 20.89785 -156.43146 34 ft 18 kts 216°
2026-04-20 15:47 20.89677 -156.43227 35 ft 20 kts 215°
2026-04-20 15:48 20.89558 -156.43317 35 ft 22 kts 216°
2026-04-20 15:48 20.89426 -156.43414 35 ft 24 kts 213°
2026-04-20 15:48 20.89284 -156.43520 35 ft 26 kts 215°
2026-04-20 15:48 20.89129 -156.43634 36 ft 28 kts 213°
2026-04-20 15:49 20.88965 -156.43755 36 ft 29 kts 217°
2026-04-20 15:49 20.88915 -156.43892 36 ft 13 kts 311°
2026-04-20 15:49 20.88939 -156.43892 36 ft 0 kts 34°